Location: Gammelsbach
(49.5261°N, 8.9630°E)
Time: 05:43:12
(UTC+00:00)

Terra - Pass Details

Date: 17 June 2025
Orbit: 689 x 692 km, 98.0° (Epoch: 12 July)

Event Time Altitude Azimuth Distance (km) Brightness Sun altitude
Exits shadow 20:14:21 - 171° (S) 2,908 4.5 -5.7°
Reaches altitude 10° 20:16:15 10° 173° (S) 2,142 3.8 -5.9°
Maximum altitude 20:20:55 70° 257° (WSW) 739 2.1 -6.4°
Drops below altitude 10° 20:25:39 10° 342° (NNW) 2,159 5.6 -6.9°
Sets 20:27:55 0° 345° (NNW) 3,081 6.5 -7.1°
